Weather History for KCGS - December, 2013

Change the Weather History Date:

Thursday, December 26, 2013

  Actual Average Record
Temperature  
Mean Temperature 34 °F -  
Max Temperature 46 °F 42 °F 70 °F (1964)
Min Temperature 21 °F 26 °F 2 °F (1983)
Degree Days  
Heating Degree Days 32    
Moisture  
Dew Point 22 °F    
Average Humidity 73    
Maximum Humidity 94    
Minimum Humidity 36    
Precipitation  
Precipitation 0.00 in - - ()
Sea Level Pressure  
Sea Level Pressure 30.30 in    
Wind  
Wind Speed 1 mph (SW)    
Max Wind Speed 8 mph    
Max Gust Speed -    
Visibility 10 miles    
Events      
Averages and records for this station are not official NWS values.
T = Trace of Precipitation, MM = Missing Value Source: NWS Daily Summary

Daily Weather History Graph

Daily Weather History Graph

Search for Another Location

Airport or City:

Trip Planner

Search our weather history database for the weather conditions in past years. The results will help you decide how hot, cold, wet, or windy it might be!

Date:

Astronomy

Dec. 26, 2013 Rise Set
Actual Time 7:25 AM EST 4:51 PM EST
Civil Twilight 6:55 AM EST 5:21 PM EST
Nautical Twilight 6:21 AM EST 5:55 PM EST
Astronomical Twilight 5:49 AM EST 6:27 PM EST
Moon 12:53 AM EST (12/26) 12:24 PM EST (12/26)
Length of Visible Light 10h 26m
Length of Day
9h 26m
Last Quarter, 38% of the Moon is Illuminated
Dec 26
Last Quarter
Jan 1
New
Jan 7
First Quarter
Jan 15
Full
Jan 24
Last Quarter

Hourly Weather History & Observations

Time (EST) Temp. Windchill Dew Point Humidity Pressure Visibility Wind Dir Wind Speed Gust Speed Precip Events Conditions
12:05 AM 24.4 °F - 21.0 °F 87% 30.40 in 10.0 mi Calm Calm - N/A   Clear
12:25 AM 24.4 °F - 21.2 °F 87% 30.39 in 10.0 mi Calm Calm - N/A   Clear
12:45 AM 24.1 °F - 21.0 °F 88% 30.38 in 10.0 mi Calm Calm - N/A   Clear
1:05 AM 23.9 °F - 21.4 °F 90% 30.38 in 10.0 mi Calm Calm - N/A   Clear
1:25 AM 23.5 °F - 21.2 °F 91% 30.37 in 10.0 mi Calm Calm - N/A   Clear
1:45 AM 23.4 °F - 21.0 °F 91% 30.37 in 10.0 mi Calm Calm - N/A   Clear
2:05 AM 23.0 °F - 20.5 °F 90% 30.37 in 10.0 mi Calm Calm - N/A   Clear
2:25 AM 22.8 °F - 20.8 °F 92% 30.36 in 10.0 mi Calm Calm - N/A   Clear
2:45 AM 22.6 °F - 20.7 °F 92% 30.36 in 10.0 mi Calm Calm - N/A   Clear
3:05 AM 22.5 °F - 20.7 °F 93% 30.35 in 10.0 mi Calm Calm - N/A   Clear
3:25 AM 22.1 °F - 20.3 °F 93% 30.35 in 10.0 mi Calm Calm - N/A   Clear
3:45 AM 21.9 °F - 20.3 °F 93% 30.33 in 10.0 mi Calm Calm - N/A   Clear
4:05 AM 22.1 °F - 20.7 °F 94% 30.32 in 10.0 mi Calm Calm - N/A   Clear
4:25 AM 21.9 °F - 20.3 °F 93% 30.31 in 10.0 mi Calm Calm - N/A   Clear
4:45 AM 23.0 °F - 21.2 °F 93% 30.30 in 10.0 mi Calm Calm - N/A   Clear
5:05 AM 23.2 °F - 21.2 °F 92% 30.30 in 10.0 mi Calm Calm - N/A   Clear
5:25 AM 24.4 °F - 22.6 °F 93% 30.29 in 10.0 mi Calm Calm - N/A   Clear
5:45 AM 24.8 °F - 23.0 °F 93% 30.29 in 10.0 mi Calm Calm - N/A   Clear
6:05 AM 25.3 °F - 23.4 °F 92% 30.29 in 10.0 mi Calm Calm - N/A   Clear
6:25 AM 25.7 °F - 23.9 °F 93% 30.28 in 10.0 mi Calm Calm - N/A   Clear
6:45 AM 25.7 °F - 23.9 °F 93% 30.28 in 10.0 mi Calm Calm - N/A   Clear
7:05 AM 26.4 °F - 24.8 °F 94% 30.29 in 10.0 mi Calm Calm - N/A   Scattered Clouds
7:25 AM 27.1 °F - 25.0 °F 92% 30.28 in 10.0 mi Calm Calm - N/A   Mostly Cloudy
7:35 AM 27.3 °F 23.4 °F 24.8 °F 90% 30.29 in 10.0 mi NW 3.5 mph - N/A   Scattered Clouds
8:00 AM 28.0 °F - 25.3 °F 90% 30.29 in 10.0 mi Calm Calm - N/A   Mostly Cloudy
8:25 AM 28.8 °F - 25.9 °F 89% 30.29 in 10.0 mi Calm Calm - N/A   Overcast
8:45 AM 29.3 °F - 25.7 °F 86% 30.29 in 10.0 mi Calm Calm - N/A   Overcast
9:05 AM 30.4 °F - 25.5 °F 82% 30.28 in 10.0 mi Calm Calm - N/A   Overcast
9:25 AM 31.3 °F - 25.7 °F 80% 30.28 in 10.0 mi Calm Calm - N/A   Overcast
9:45 AM 32.0 °F 28.7 °F 25.3 °F 76% 30.29 in 10.0 mi SSE 3.5 mph - N/A   Overcast
10:05 AM 32.9 °F 29.8 °F 21.9 °F 64% 30.29 in 10.0 mi SSW 3.5 mph - N/A   Overcast
10:25 AM 34.2 °F 29.0 °F 21.4 °F 60% 30.29 in 10.0 mi SSW 5.8 mph - N/A   Mostly Cloudy
10:45 AM 35.2 °F 31.2 °F 22.3 °F 59% 30.29 in 10.0 mi SSW 4.6 mph - N/A   Scattered Clouds
11:05 AM 36.7 °F - 21.6 °F 54% 30.29 in 10.0 mi Calm Calm - N/A   Clear
11:25 AM 37.4 °F 33.8 °F 19.9 °F 49% 30.28 in 10.0 mi SW 4.6 mph - N/A   Clear
11:45 AM 37.9 °F 35.5 °F 20.1 °F 49% 30.27 in 10.0 mi SSW 3.5 mph - N/A   Clear
12:05 PM 38.8 °F 35.4 °F 20.5 °F 48% 30.26 in 10.0 mi SSW 4.6 mph - N/A   Clear
12:25 PM 39.4 °F - 20.1 °F 46% 30.25 in 10.0 mi Calm Calm - N/A   Clear
12:45 PM 40.6 °F 38.6 °F 20.1 °F 44% 30.25 in 10.0 mi WSW 3.5 mph - N/A   Clear
1:05 PM 41.2 °F 39.2 °F 20.7 °F 44% 30.24 in 10.0 mi South 3.5 mph - N/A   Clear
1:45 PM 43.3 °F 41.7 °F 20.3 °F 40% 30.23 in 10.0 mi West 3.5 mph - N/A   Clear
2:05 PM 43.9 °F 42.3 °F 20.3 °F 39% 30.23 in 10.0 mi SW 3.5 mph - N/A   Clear
2:20 PM 44.4 °F - 20.3 °F 38% 30.23 in 10.0 mi Calm Calm - N/A   Clear
2:45 PM 44.8 °F - 20.7 °F 38% 30.23 in 10.0 mi Calm Calm - N/A   Clear
3:05 PM 45.5 °F 42.5 °F 20.3 °F 37% 30.24 in 10.0 mi WNW 5.8 mph - N/A   Clear
3:25 PM 45.5 °F 44.2 °F 20.3 °F 37% 30.25 in 10.0 mi SW 3.5 mph - N/A   Clear
3:45 PM 46.4 °F 42.4 °F 20.5 °F 36% 30.25 in 10.0 mi West 8.1 mph - N/A   Clear
4:05 PM 45.7 °F 43.4 °F 21.0 °F 38% 30.25 in 10.0 mi WSW 4.6 mph - N/A   Clear
4:25 PM 44.6 °F 42.2 °F 21.2 °F 39% 30.26 in 10.0 mi WNW 4.6 mph - N/A   Clear
4:45 PM 44.1 °F - 21.2 °F 40% 30.27 in 10.0 mi Calm Calm - N/A   Clear
5:05 PM 43.2 °F 41.5 °F 21.6 °F 42% 30.27 in 10.0 mi NW 3.5 mph - N/A   Clear
5:25 PM 39.7 °F 37.6 °F 23.4 °F 52% 30.28 in 10.0 mi ESE 3.5 mph - N/A   Clear
5:45 PM 36.9 °F - 24.4 °F 61% 30.28 in 10.0 mi Calm Calm - N/A   Clear
6:05 PM 37.0 °F - 24.3 °F 60% 30.28 in 10.0 mi Calm Calm - N/A   Clear
6:25 PM 33.8 °F - 24.8 °F 70% 30.29 in 10.0 mi Calm Calm - N/A   Clear
6:45 PM 34.3 °F - 24.6 °F 68% 30.29 in 10.0 mi Calm Calm - N/A   Clear
7:05 PM 32.0 °F - 25.7 °F 78% 30.30 in 10.0 mi Calm Calm - N/A   Clear
7:25 PM 33.6 °F - 25.2 °F 71% 30.30 in 10.0 mi Calm Calm - N/A   Clear
7:45 PM 30.9 °F - 23.9 °F 75% 30.31 in 10.0 mi Calm Calm - N/A   Clear
8:05 PM 32.0 °F - 24.4 °F 74% 30.32 in 10.0 mi Calm Calm - N/A   Clear
8:25 PM 30.0 °F - 25.0 °F 82% 30.32 in 10.0 mi Calm Calm - N/A   Clear
8:45 PM 30.0 °F - 24.6 °F 80% 30.32 in 10.0 mi Calm Calm - N/A   Clear
9:05 PM 29.7 °F - 24.8 °F 82% 30.33 in 10.0 mi Calm Calm - N/A   Clear
9:25 PM 29.3 °F - 23.0 °F 77% 30.33 in 10.0 mi Calm Calm - N/A   Clear
9:45 PM 28.9 °F - 23.2 °F 79% 30.33 in 10.0 mi Calm Calm - N/A   Clear
10:05 PM 28.4 °F - 23.7 °F 83% 30.34 in 10.0 mi Calm Calm - N/A   Clear
10:25 PM 27.9 °F - 23.5 °F 84% 30.34 in 10.0 mi Calm Calm - N/A   Clear
10:45 PM 28.0 °F - 23.4 °F 83% 30.35 in 10.0 mi Calm Calm - N/A   Clear
11:05 PM 27.9 °F - 23.0 °F 82% 30.36 in 10.0 mi Calm Calm - N/A   Clear
11:25 PM 27.3 °F - 23.5 °F 86% 30.35 in 10.0 mi Calm Calm - N/A   Clear
11:45 PM 27.1 °F - 23.0 °F 84% 30.36 in 10.0 mi Calm Calm - N/A   Clear